• In Deutschland
  • Länderverzeichnis
  • Für 7 Tage
  • Wassertemperatur
  • Satellitenkarten
  • Wetterkarte
  • Widgets
  • user-avatar
    Anmelden

    Stündliche Wetter Río Gallegos

    Heute, 23 November, Donnerstag

    Zeit Temperatur Niederschläge Wind Luftdruck Luftfeuchtigkeit
    00:00 0°C° 0 mm 15 m/S 754 mmHg 57%
    01:00 0°C° 0 mm 14 m/S 755 mmHg 57%
    02:00 0°C° 0 mm 13 m/S 756 mmHg 58%
    03:00 0°C° 0 mm 12 m/S 757 mmHg 60%
    04:00 -1°C° 0 mm 12 m/S 757 mmHg 62%
    05:00 0°C° 0 mm 12 m/S 757 mmHg 58%
    06:00 +3°C° 0 mm 13 m/S 757 mmHg 55%
    07:00 +4°C° 0 mm 13 m/S 757 mmHg 51%
    08:00 +4°C° 0 mm 13 m/S 757 mmHg 51%
    09:00 +4°C° 0 mm 13 m/S 756 mmHg 51%
    10:00 +5°C° 0 mm 13 m/S 756 mmHg 51%
    11:00 +5°C° 0,1 mm 13 m/S 755 mmHg 53%
    12:00 +7°C° 0,1 mm 13 m/S 754 mmHg 55%
    13:00 +7°C° 0,1 mm 13 m/S 754 mmHg 56%
    14:00 +8°C° 0,1 mm 13 m/S 753 mmHg 55%
    15:00 +8°C° 0,1 mm 14 m/S 752 mmHg 54%
    16:00 +9°C° 0,1 mm 15 m/S 752 mmHg 53%
    17:00 +8°C° 0 mm 15 m/S 751 mmHg 56%
    18:00 +8°C° 0 mm 14 m/S 751 mmHg 58%
    19:00 +8°C° 0 mm 14 m/S 751 mmHg 61%
    20:00 +6°C° 0 mm 14 m/S 751 mmHg 63%
    21:00 +7°C° 0 mm 13 m/S 751 mmHg 66%
    22:00 +5°C° 0 mm 12 m/S 751 mmHg 68%
    23:00 +7°C° 0 mm 12 m/S 750 mmHg 68%

    Morgen, 24 November, Freitag

    Zeit Temperatur Niederschläge Wind Luftdruck Luftfeuchtigkeit
    00:00 +7°C° 0 mm 12 m/S 750 mmHg 67%
    01:00 +7°C° 0 mm 12 m/S 750 mmHg 67%
    02:00 +7°C° 0 mm 11 m/S 750 mmHg 68%
    03:00 +7°C° 0 mm 11 m/S 749 mmHg 68%
    04:00 +7°C° 0 mm 10 m/S 749 mmHg 69%
    05:00 +8°C° 0 mm 11 m/S 749 mmHg 66%
    06:00 +9°C° 0 mm 12 m/S 748 mmHg 62%
    07:00 +10°C° 0 mm 13 m/S 748 mmHg 59%
    08:00 +10°C° 0 mm 14 m/S 747 mmHg 58%
    09:00 +12°C° 0 mm 14 m/S 747 mmHg 56%
    10:00 +11°C° 0 mm 15 m/S 746 mmHg 54%
    11:00 +13°C° 0 mm 15 m/S 746 mmHg 52%
    12:00 +14°C° 0 mm 16 m/S 745 mmHg 49%
    13:00 +15°C° 0 mm 16 m/S 745 mmHg 46%
    14:00 +15°C° 0 mm 16 m/S 744 mmHg 46%
    15:00 +16°C° 0 mm 16 m/S 744 mmHg 45%
    16:00 +16°C° 0 mm 16 m/S 743 mmHg 45%
    17:00 +15°C° 0 mm 16 m/S 743 mmHg 49%
    18:00 +14°C° 0 mm 15 m/S 743 mmHg 53%
    19:00 +13°C° 0 mm 14 m/S 743 mmHg 57%
    20:00 +12°C° 0 mm 14 m/S 744 mmHg 58%
    21:00 +12°C° 0 mm 13 m/S 744 mmHg 60%
    22:00 +10°C° 0 mm 13 m/S 744 mmHg 61%
    23:00 +10°C° 0 mm 14 m/S 743 mmHg 62%

    übermorgen, 25 November, Samstag

    Zeit Temperatur Niederschläge Wind Luftdruck Luftfeuchtigkeit
    00:00 +10°C° 0 mm 14 m/S 743 mmHg 62%
    01:00 +10°C° 0 mm 15 m/S 743 mmHg 62%
    02:00 +10°C° 0 mm 15 m/S 743 mmHg 63%
    03:00 +10°C° 0 mm 15 m/S 743 mmHg 64%
    04:00 +10°C° 0 mm 15 m/S 743 mmHg 64%
    05:00 +11°C° 0 mm 17 m/S 743 mmHg 60%
    06:00 +12°C° 0 mm 18 m/S 743 mmHg 56%
    07:00 +14°C° 0 mm 19 m/S 744 mmHg 52%
    08:00 +14°C° 0 mm 18 m/S 743 mmHg 51%
    09:00 +15°C° 0 mm 17 m/S 743 mmHg 50%
    10:00 +16°C° 0 mm 16 m/S 743 mmHg 49%
    11:00 +16°C° 0 mm 16 m/S 743 mmHg 48%
    12:00 +18°C° 0 mm 15 m/S 742 mmHg 47%
    13:00 +18°C° 0 mm 15 m/S 742 mmHg 45%
    14:00 +18°C° 0 mm 15 m/S 741 mmHg 44%
    15:00 +18°C° 0 mm 15 m/S 740 mmHg 43%
    16:00 +18°C° 0 mm 14 m/S 740 mmHg 42%
    17:00 +17°C° 0 mm 14 m/S 739 mmHg 44%
    18:00 +15°C° 0 mm 14 m/S 739 mmHg 46%
    19:00 +14°C° 0 mm 13 m/S 738 mmHg 48%
    20:00 +13°C° 0,2 mm 13 m/S 738 mmHg 51%
    21:00 +12°C° 0,2 mm 13 m/S 738 mmHg 55%
    22:00 +10°C° 0,2 mm 13 m/S 738 mmHg 58%
    23:00 +9°C° 0,4 mm 13 m/S 738 mmHg 59%

    26 November, Sonntag

    Zeit Temperatur Niederschläge Wind Luftdruck Luftfeuchtigkeit
    00:00 +8°C° 0,4 mm 14 m/S 738 mmHg 60%
    01:00 +5°C° 0,4 mm 15 m/S 738 mmHg 61%
    02:00 +4°C° 0 mm 16 m/S 738 mmHg 61%
    03:00 +4°C° 0 mm 16 m/S 739 mmHg 61%
    04:00 +2°C° 0 mm 17 m/S 739 mmHg 61%
    05:00 +3°C° 0 mm 18 m/S 739 mmHg 56%
    06:00 +3°C° 0 mm 18 m/S 740 mmHg 51%
    07:00 +5°C° 0 mm 19 m/S 740 mmHg 46%
    08:00 +4°C° 0,1 mm 20 m/S 741 mmHg 47%
    09:00 +6°C° 0,1 mm 20 m/S 743 mmHg 48%
    10:00 +6°C° 0,1 mm 21 m/S 744 mmHg 49%
    11:00 +6°C° 0,1 mm 20 m/S 746 mmHg 47%
    12:00 +6°C° 0,1 mm 19 m/S 748 mmHg 46%
    13:00 +6°C° 0,1 mm 17 m/S 750 mmHg 44%
    14:00 +5°C° 0,1 mm 17 m/S 751 mmHg 44%
    15:00 +5°C° 0,1 mm 17 m/S 753 mmHg 43%
    16:00 +5°C° 0,1 mm 16 m/S 755 mmHg 43%
    17:00 +4°C° 0 mm 15 m/S 756 mmHg 45%
    18:00 +4°C° 0 mm 14 m/S 757 mmHg 47%
    19:00 +3°C° 0 mm 13 m/S 759 mmHg 49%
    20:00 +3°C° 0 mm 12 m/S 760 mmHg 52%
    21:00 +2°C° 0 mm 11 m/S 761 mmHg 55%
    22:00 +2°C° 0 mm 10 m/S 762 mmHg 58%
    23:00 +1°C° 0 mm 9 m/S 762 mmHg 61%

    27 November, Montag

    Zeit Temperatur Niederschläge Wind Luftdruck Luftfeuchtigkeit
    00:00 +1°C° 0 mm 8 m/S 762 mmHg 64%
    01:00 +1°C° 0 mm 8 m/S 762 mmHg 66%
    02:00 +2°C° 0 mm 7 m/S 762 mmHg 68%
    03:00 +2°C° 0 mm 7 m/S 762 mmHg 69%
    04:00 +2°C° 0 mm 7 m/S 762 mmHg 70%
    05:00 +3°C° 0 mm 7 m/S 761 mmHg 64%
    06:00 +4°C° 0 mm 8 m/S 761 mmHg 58%
    07:00 +5°C° 0 mm 8 m/S 761 mmHg 52%
    08:00 +6°C° 0,3 mm 8 m/S 760 mmHg 52%
    09:00 +6°C° 0,3 mm 7 m/S 759 mmHg 53%
    10:00 +6°C° 0,3 mm 7 m/S 758 mmHg 53%
    11:00 +9°C° 0,2 mm 8 m/S 757 mmHg 50%
    12:00 +10°C° 0,2 mm 8 m/S 756 mmHg 47%
    13:00 +11°C° 0,2 mm 9 m/S 756 mmHg 44%
    14:00 +12°C° 0,4 mm 8 m/S 755 mmHg 49%
    15:00 +12°C° 0,4 mm 8 m/S 755 mmHg 54%
    16:00 +12°C° 0,4 mm 7 m/S 755 mmHg 59%
    17:00 +11°C° 0 mm 7 m/S 755 mmHg 60%
    18:00 +11°C° 0 mm 7 m/S 755 mmHg 61%
    19:00 +11°C° 0 mm 7 m/S 755 mmHg 62%
    20:00 +10°C° 0 mm 7 m/S 755 mmHg 63%
    21:00 +10°C° 0 mm 7 m/S 755 mmHg 65%
    22:00 +9°C° 0 mm 7 m/S 755 mmHg 67%
    23:00 +9°C° 0 mm 6 m/S 755 mmHg 68%

    28 November, Dienstag

    Zeit Temperatur Niederschläge Wind Luftdruck Luftfeuchtigkeit
    00:00 +9°C° 0 mm 6 m/S 755 mmHg 68%
    01:00 +9°C° 0 mm 6 m/S 755 mmHg 69%
    02:00 +9°C° 0 mm 6 m/S 755 mmHg 67%
    03:00 +10°C° 0 mm 6 m/S 755 mmHg 66%
    04:00 +10°C° 0 mm 6 m/S 755 mmHg 64%
    05:00 +11°C° 0 mm 6 m/S 755 mmHg 61%
    06:00 +12°C° 0 mm 7 m/S 755 mmHg 58%
    07:00 +15°C° 0 mm 8 m/S 755 mmHg 55%
    08:00 +16°C° 0 mm 9 m/S 755 mmHg 52%
    09:00 +17°C° 0 mm 9 m/S 755 mmHg 48%
    10:00 +19°C° 0 mm 10 m/S 754 mmHg 45%
    11:00 +19°C° 0 mm 10 m/S 754 mmHg 45%
    12:00 +19°C° 0 mm 9 m/S 754 mmHg 46%
    13:00 +19°C° 0 mm 9 m/S 754 mmHg 46%
    14:00 +18°C° 0,1 mm 9 m/S 755 mmHg 49%
    15:00 +17°C° 0,1 mm 10 m/S 755 mmHg 52%
    16:00 +16°C° 0,1 mm 10 m/S 755 mmHg 55%
    17:00 +14°C° 0 mm 10 m/S 756 mmHg 57%
    18:00 +13°C° 0 mm 9 m/S 757 mmHg 58%
    19:00 +12°C° 0 mm 9 m/S 757 mmHg 60%
    20:00 +12°C° 0 mm 7 m/S 758 mmHg 63%
    21:00 +11°C° 0 mm 6 m/S 758 mmHg 67%
    22:00 +10°C° 0 mm 5 m/S 759 mmHg 70%
    23:00 +10°C° 0 mm 3 m/S 759 mmHg 74%
    Mehr zeigen